User: anonymous   Login
Location: Stoke Bliss
(52.2667°N, 2.5167°W)
Time: 00:47:25
(UTC+00:00)
Language:

SPOT 5 - Orbit

View from above orbital plane
View from above orbital plane
View from above satellite
View from above satellite

Ground track
Ground track

The orbit data is extracted from the following two-line orbital elements,

1 27421U 02021A   21138.78514777  .00000092  00000-0  31881-4 0  9998
2 27421  98.2288 210.0097 0133743 254.2844 104.3556 14.52097154993412
Epoch (UTC): 18 May 2021 18:50:36
Eccentricity: 0.0133743
inclination: 98.2288°
perigee height: 624 km
apogee height: 814 km
right ascension of ascending node: 210.0097°
argument of perigee: 254.2844°
revolutions per day: 14.52097154
mean anomaly at epoch: 104.3556°
orbit number at epoch: 99341

The dashed part of the orbit path shows where the satellite is in the earth's shadow,  

DLR